Location: Newark
(13.6797°N, 8.5297°E)
Time: 06:16:57
(UTC+00:00)

A-11 Canister half - Pass Details

Date: 24 January 2020
Orbit: 1517 x 1683 km, 47.2° (Epoch: 17 February)

Event Time Altitude Azimuth Distance (km) Brightness Sun altitude
Rises 07:30:08 0° 315° (NW) 4,675 11.0 20.7°
Reaches altitude 10° 07:33:08 10° 314° (NW) 3,706 10.5 21.3°
Maximum altitude 07:42:30 77° 230° (SW) 1,606 9.5 23.4°
Drops below altitude 10° 07:52:12 10° 145° (SE) 3,829 12.4 25.4°
Sets 07:55:22 0° 144° (SE) 4,837 12.7 26.1°
